LIMJLFKB

Guest
Details From LIMJ - Genova Sestri
To LFKB - Bastia Poretta
Flight Number -
Tags generated
Created
Modified
Stats Distance 115 nm / 213 km
Max Altitude 9,400 ft / 2,865 m
Waypoints 3
Social Downloads 0
Likes 0
Share VATSIM

Download

Looking for another format? Having issues loading an existing format? Contact us
Advertisement - Login to hide

Notes

Basic altitude profile: - Ascent Rate: 2500ft/min - Ascent Speed: 250kts - Cruise Altitude: 35000ft - Cruise Speed: 420kts - Descent Rate: 1500ft/min - Descent Speed: 250kts Options: - Use NATs: yes - Use PACOTS: yes - Use low airways: yes - Use high airways: yes

Route

LIMJ UNITA LFKB

ID Type Via Altitude Latitude Longitude Leg Dist Tot Dist Heading (true) Name
O LIMJ APT - 0 ft / 0 m 44.41196˚ 8.84187˚ - 0 nm - Genova Sestri
UNITA FIX - 9,400 ft / 2,865 m 43.94444˚ 9.02500˚ 29 nm 29 nm 164° / 164° -
O LFKB APT - 0 ft / 0 m 42.55251˚ 9.48371˚ 85 nm 115 nm 166° / 167° Bastia Poretta

Altitude Profile

Advertisement - Login to hide

LIMJ

Details ICAO LIMJ (GOA)
Name Genova Sestri
Region Italy
Timezone Unknown (UTC+0.0)
Stats Elevation 13 ft / 4 m (AMSL)
Location 44.411957° 8.841866°
Runways 1
Magnetic Variation 2.437° E

METAR

LIMJ 221720Z 15004KT 090V200 9999 SCT025 SCT060 19/16 Q1013

Decode

TAF

TAF LIMJ 221100Z 2212/2312 VRB06KT 9999 SCT025 BKN050 TEMPO 2212/2218 TSRA

Decode

Departure Runways

ID Width Length Bearing (true) Bearing (mag) Surface Threshold Offset Overrun Length
10 148 ft / 45 m 9,574 ft / 2,918 m 105.39° 102.95° Asphalt 0 ft / 0 m 0 ft / 0 m
28 148 ft / 45 m 9,574 ft / 2,918 m 285.41° 282.97° Asphalt 538 ft / 164 m 0 ft / 0 m

LFKB

Details ICAO LFKB (BIA)
Name Bastia Poretta
Region France
Timezone Europe/Paris (UTC+2.0)
Stats Elevation 25 ft / 8 m (AMSL)
Location 42.552508° 9.483709°
Runways 1
Magnetic Variation 2.532° E

METAR

LFKB 221730Z AUTO VRB02KT 5000 -RA BR SCT025/// BKN035/// BKN049/// ///TCU 17/16 Q1013 TEMPO FEW020CB

Decode

TAF

TAF LFKB 221400Z 2215/2315 30010KT 9999 FEW015 SCT025 BKN040 TEMPO 2215/2306 FEW020CB PROB30 TEMPO 2215/2217 3000 SHRA BR BKN014 BKN030 TEMPO 2312/2315 FEW030TCU TX22/2312Z TN14/2303Z

Decode

Destination Runways

ID Width Length Bearing (true) Bearing (mag) Surface Threshold Offset Overrun Length
16 148 ft / 45 m 8,273 ft / 2,522 m 162.83° 160.30° Concrete 0 ft / 0 m 131 ft / 40 m
34 148 ft / 45 m 8,273 ft / 2,522 m 342.84° 340.31° Concrete 0 ft / 0 m 0 ft / 0 m

Approach Navaids

Runway Type Ident Frequency Range Bearing (true) Bearing (mag) Slope Elevation
34 Localiser BP 111.35 MHz 27 nm / 50 km 342.81° 340.28° - 25 ft / 8 m (AMSL)
34 Glidescope BP 111.35 MHz 27 nm / 50 km 342.81° 340.28° 3.00° 25 ft / 8 m (AMSL)
34 DME BP 111.35 MHz 18 nm / 33 km - - - 69 ft / 21 m (AMSL)

Popular Alternatives